Powrót do katalogu

HULIANWANG DIGUI-30

AktywnyŁącznośćPO
NORAD 64283·PAYLOAD·🇨🇳 China

Wystrzelony Jun 5, 2025 z Taiyuan Satellite Launch Center

Loading…

Następne Przeloty (najbliższe 24 godziny)

TLE

ŚwieżeSource: Space-Track

Epoka: Sep 14, 2026, 22:04 UTC

1 64283U 25121A   26257.91956913  .00000033  00000-0  43477-4 0  9994
2 64283  86.5048 343.2991 0001616 108.0875 252.0435 13.24410494 62034

Śledź HULIANWANG DIGUI-30 w czasie rzeczywistym z AllMySat

Download on the App Store